"timestamp";"minute";"mean_h";"std_h";"mean_l";"std_l"
2019-10-31T23:00:56;1;-119.29534;2.5530915;-119.203545;2.6025317
2019-10-31T23:05:56;1;-119.53758;2.5930107;-119.435616;2.5751605
2019-10-31T23:10:56;1;-119.6051;2.548076;-119.73602;2.629205
2019-10-31T23:15:56;1;-119.528885;2.573314;-119.87102;2.5612557
2019-10-31T23:20:56;1;-119.2953;2.5142689;-119.08814;2.5135891
2019-10-31T23:25:56;1;-119.40638;2.5080721;-119.37405;2.5731468
2019-10-31T23:30:56;1;-119.44427;2.560188;-119.51072;2.6047578
2019-10-31T23:35:56;1;-119.155914;2.6059377;-119.29882;2.5974474
2019-10-31T23:40:56;1;-119.43733;2.521227;-119.5425;2.4562945
2019-10-31T23:45:56;1;-119.22051;2.5908957;-119.26256;2.652626
2019-10-31T23:50:56;1;-119.104996;2.5968816;-119.272766;2.5817254
2019-10-31T23:55:56;1;-119.08491;2.5704997;-119.19199;2.5830436
2019-11-01T00:00:56;1;-119.19267;2.574821;-119.2122;2.6408377
2019-11-01T00:05:56;1;-119.32547;2.5478709;-119.63628;2.452257
2019-11-01T00:10:56;1;-119.20756;2.703284;-119.30244;2.7577477
2019-11-01T00:15:56;1;-119.60061;2.5704827;-119.62567;2.6256917
2019-11-01T00:20:56;1;-119.44346;2.693956;-119.37712;2.8371413
2019-11-01T00:25:56;1;-119.31398;2.5554056;-119.57661;2.496808
2019-11-01T00:30:56;1;-119.39356;2.6138115;-119.62884;2.5922832
2019-11-01T00:35:56;1;-118.84932;2.6609602;-118.78694;2.7151337
2019-11-01T00:40:56;1;-119.24086;2.5738344;-119.505516;2.622967
2019-11-01T00:45:56;1;-119.48214;2.5354333;-119.607;2.5808678
2019-11-01T00:50:56;1;-119.45236;2.5745928;-119.591675;2.5764353
2019-11-01T00:55:56;1;-119.594574;2.6245894;-119.656715;2.6854365
2019-11-01T01:00:56;1;-119.19201;2.518994;-119.39862;2.4124053
2019-11-01T01:05:56;1;-118.919624;2.5224562;-118.95503;2.442889
2019-11-01T01:10:56;1;-118.94802;2.5106094;-118.87667;2.5533211
2019-11-01T01:15:56;1;-119.108925;2.6027303;-119.44581;2.631772
2019-11-01T01:20:56;1;-118.806305;2.6798666;-119.72569;2.512468
2019-11-01T01:25:56;1;-119.50297;2.6547506;-119.730194;2.696055
2019-11-01T01:30:56;1;-118.89889;2.6639867;-118.91477;2.7099314
2019-11-01T01:35:56;1;-118.79024;2.5095317;-118.89031;2.5445523
2019-11-01T01:40:56;1;-118.86944;2.4889128;-119.04654;2.3728406
2019-11-01T01:45:56;1;-119.38404;2.5748818;-119.47993;2.5669172
2019-11-01T01:50:56;1;-119.48277;2.6042898;-119.519775;2.6920605
2019-11-01T01:55:56;1;-119.566765;2.6422925;-119.63151;2.7587223
2019-11-01T02:00:56;1;-118.937706;2.6254346;-119.103264;2.5829208
2019-11-01T02:05:56;1;-119.663795;2.7012787;-119.99902;2.727365
2019-11-01T02:10:56;1;-119.741486;2.5515022;-120.0388;2.53127
2019-11-01T02:15:56;1;-118.676575;2.4836574;-118.60228;2.491206
2019-11-01T02:20:56;1;-119.59586;2.6607304;-119.34679;2.6815383
2019-11-01T02:25:56;1;-119.831825;2.6003647;-119.822174;2.5647376
2019-11-01T02:30:56;1;-120.05611;2.58965;-120.29964;2.5657036
2019-11-01T02:35:56;1;-119.128174;2.6895785;-118.90894;2.5931387
2019-11-01T02:40:56;1;-118.87967;2.4643288;-118.74336;2.4960668
2019-11-01T02:45:56;1;-118.93055;2.5577996;-118.801346;2.612579
2019-11-01T02:50:56;1;-119.51704;2.7622647;-119.12827;2.703681
2019-11-01T02:55:56;1;-119.06299;2.5669045;-119.111626;2.5790646
2019-11-01T03:00:56;1;-118.789;2.5349395;-118.956985;2.5673075
2019-11-01T03:05:56;1;-119.219696;2.5853207;-119.2875;2.6392756
2019-11-01T03:10:56;1;-118.71134;2.6176538;-118.57411;2.5792913
2019-11-01T03:15:56;1;-119.16802;2.7027657;-119.290115;2.56733
2019-11-01T03:20:56;1;-118.87488;2.6852815;-119.27424;2.8564954
2019-11-01T03:25:56;1;-119.83993;2.666224;-119.704544;2.7124631
2019-11-01T03:30:56;1;-118.78506;2.6351256;-118.414406;2.5392802
2019-11-01T03:35:56;1;-118.9353;2.596387;-118.80092;2.6373234
2019-11-01T03:40:56;1;-119.08935;2.558136;-119.002686;2.5127542
2019-11-01T03:45:56;1;-118.99579;2.6464436;-118.89398;2.744787
2019-11-01T03:50:56;1;-120.26998;2.6136336;-120.35208;2.6686518
2019-11-01T03:55:56;1;-120.10617;2.5664694;-120.06902;2.646934
2019-11-01T04:00:56;1;-118.91899;2.7512288;-118.947235;2.7791677
2019-11-01T04:05:56;1;-118.394424;3.02581;-117.61867;2.8575292
2019-11-01T04:10:56;1;-118.88855;2.577536;-118.50937;2.5091398
2019-11-01T04:15:56;1;-119.66244;2.5178757;-119.15494;2.5363126
2019-11-01T04:20:56;1;-119.33213;2.6714036;-119.71768;2.7141962
2019-11-01T04:25:56;1;-118.98202;2.6053567;-118.98424;2.694989
2019-11-01T04:30:56;1;-119.10658;2.4912996;-119.4716;2.4970968
2019-11-01T04:35:56;1;-118.409935;3.4447513;-117.183266;3.8494713
2019-11-01T04:40:56;1;-120.3628;2.6831632;-120.69958;2.6542513
2019-11-01T04:45:56;1;-114.60533;4.4233212;-112.974236;3.8652134
2019-11-01T04:50:56;1;-118.9137;2.6563282;-118.55347;2.487464
2019-11-01T04:55:56;1;-118.85118;2.590647;-118.88315;2.5797625
2019-11-01T05:00:56;1;-119.52473;2.6218405;-119.448265;2.6310265
2019-11-01T05:05:56;1;-119.20924;2.5231926;-119.48889;2.5639987
2019-11-01T05:10:56;1;-120.21411;2.5894508;-120.1733;2.6065342
2019-11-01T05:15:56;1;-119.24783;2.5339136;-119.46948;2.5915084
2019-11-01T05:20:56;1;-119.813995;2.7099552;-119.275246;2.7678242
2019-11-01T05:25:56;1;-118.81939;2.5000758;-118.73534;2.599681
2019-11-01T05:30:56;1;-120.05438;2.709363;-120.61124;2.6931539
2019-11-01T05:35:56;1;-120.06642;2.66071;-119.919174;2.6916728
2019-11-01T05:40:56;1;-118.97012;2.5543308;-119.1312;2.521723
2019-11-01T05:45:56;1;-118.64157;2.5092695;-119.02236;2.530257
2019-11-01T05:50:56;1;-118.78406;2.54062;-118.94483;2.5304587
2019-11-01T05:55:56;1;-118.134094;2.714517;-118.922455;2.4479375
2019-11-01T06:00:56;1;-117.46658;3.1485255;-119.23569;2.5645502
2019-11-01T06:05:56;1;-117.51672;3.0704658;-118.98231;2.5192602
2019-11-01T06:10:56;1;-115.60546;4.315954;-119.629005;2.5457385
2019-11-01T06:15:56;1;-116.09526;4.363471;-120.22888;2.7072291
2019-11-01T06:20:56;1;-114.60373;5.00868;-120.0822;2.6771088
2019-11-01T06:25:56;1;-112.958885;5.406846;-119.61159;2.5468214
2019-11-01T06:30:56;1;-110.87286;5.7710204;-117.06622;3.6377664
2019-11-01T06:35:56;1;-111.35783;6.181991;-119.762146;2.5599213
2019-11-01T06:40:56;1;-91.1475;16.12837;-119.862686;2.7317982
2019-11-01T06:45:56;1;-93.75974;14.61522;-118.826355;3.030956
2019-11-01T06:50:56;1;-87.40369;17.948298;-119.3215;2.7298834
2019-11-01T06:55:56;1;-91.03908;16.07232;-119.20897;2.5747747
2019-11-01T07:00:56;1;-92.87127;15.102565;-119.74093;2.511188
2019-11-01T07:05:56;1;-91.47179;15.723332;-119.54947;2.6157339
2019-11-01T07:10:56;1;-94.72173;13.851499;-119.48082;2.6800182
2019-11-01T07:15:56;1;-93.56026;15.007499;-119.71793;2.5954049
2019-11-01T07:20:56;1;-88.82185;17.412193;-120.10384;2.469835
2019-11-01T07:25:56;1;-88.23387;17.232704;-119.76193;2.5191002
2019-11-01T07:30:56;1;-86.497536;18.04731;-119.67008;2.6128438
2019-11-01T07:35:56;1;-90.31985;16.431671;-120.1316;2.5041778
2019-11-01T07:40:56;1;-87.61444;16.934542;-118.95689;2.6499279
2019-11-01T07:45:56;1;-90.02535;15.821024;-119.0605;2.5882092
2019-11-01T07:50:56;1;-92.15835;14.64461;-118.82316;2.5201883
2019-11-01T07:55:56;1;-90.76166;15.5979395;-119.061386;2.663766
2019-11-01T08:00:56;1;-87.99969;16.83021;-118.85062;2.6190453
2019-11-01T08:05:56;1;-87.94788;16.94456;-119.103355;2.502842
2019-11-01T08:10:56;1;-93.11665;14.623671;-119.129;2.5694818
2019-11-01T08:15:56;1;-90.04679;16.077429;-119.2244;2.610573
2019-11-01T08:20:56;1;-90.00158;16.08483;-119.05239;2.5701163
2019-11-01T08:25:56;1;-89.45163;16.252228;-118.98094;2.5098116
2019-11-01T08:30:56;1;-89.68069;16.663965;-119.52945;2.5517993
2019-11-01T08:35:56;1;-90.922615;15.950749;-119.47888;2.8165026
2019-11-01T08:40:56;1;-96.86197;13.02047;-119.73089;2.5645196
2019-11-01T08:45:56;1;-87.87797;17.159157;-119.869965;2.5431037
2019-11-01T08:50:56;1;-90.22992;16.23721;-119.765625;2.5656788
2019-11-01T08:55:56;1;-92.76668;14.939655;-115.99412;4.7003675
2019-11-01T09:00:56;1;-91.341606;14.907428;-116.35268;4.02204
2019-11-01T09:05:56;1;-93.69784;14.268513;-119.626175;2.4917426
2019-11-01T09:10:56;1;-92.68078;14.593423;-120.07456;2.5508614
2019-11-01T09:15:56;1;-91.02895;15.820552;-120.08203;2.6504612
2019-11-01T09:20:56;1;-90.85015;15.197681;-119.31922;2.5603805
2019-11-01T09:25:56;1;-92.50708;14.959013;-119.63259;2.5247798
2019-11-01T09:30:56;1;-95.767204;13.38704;-119.92968;2.5503705
2019-11-01T09:35:56;1;-99.38723;11.84697;-120.10415;2.5474086
2019-11-01T09:40:56;1;-101.172714;10.992916;-120.23676;2.5926886
2019-11-01T09:45:56;1;-99.38795;11.730413;-119.83519;2.6384323
2019-11-01T09:50:56;1;-95.88472;13.474498;-120.11011;2.6551988
2019-11-01T09:55:56;1;-96.42975;12.9878;-119.12006;2.6081738
2019-11-01T10:00:56;1;-99.41745;11.453656;-119.368996;2.6469493
2019-11-01T10:05:56;1;-95.06722;13.67507;-119.72213;2.4187565
2019-11-01T10:10:56;1;-92.57058;14.708127;-119.63555;2.6159265
2019-11-01T10:15:56;1;-93.62887;14.552052;-119.98572;2.7519882
2019-11-01T10:20:56;1;-97.503975;12.612208;-119.68456;2.528484
2019-11-01T10:25:56;1;-92.43019;14.804136;-119.387794;2.5539193
2019-11-01T10:30:56;1;-98.271;12.325335;-119.45482;2.6814082
2019-11-01T10:35:56;1;-97.71506;12.500584;-119.72038;2.4926958
2019-11-01T10:40:56;1;-89.27392;16.74188;-120.18293;2.5417864
2019-11-01T10:45:56;1;-92.55515;14.849311;-119.186195;2.6125674
2019-11-01T10:50:56;1;-94.23473;14.441648;-119.61136;2.5798
2019-11-01T10:55:56;1;-91.81118;15.576582;-119.614746;2.5187092
2019-11-01T11:00:56;1;-94.86159;13.810529;-119.38501;2.5157485
2019-11-01T11:05:56;1;-97.5641;12.492415;-119.51398;2.562396
2019-11-01T11:10:56;1;-97.89544;12.573363;-119.8667;2.6113334
2019-11-01T11:15:56;1;-93.93238;14.180177;-119.541435;2.4468153
2019-11-01T11:20:56;1;-91.40801;15.517001;-119.47043;2.490824
2019-11-01T11:25:56;1;-96.3805;13.258108;-119.89033;2.6567137
2019-11-01T11:30:56;1;-96.233665;13.263018;-119.75044;2.7036095
2019-11-01T11:35:56;1;-92.47191;15.35193;-120.00581;2.6602964
2019-11-01T11:40:56;1;-95.91629;13.083092;-119.69103;2.6594493
2019-11-01T11:45:56;1;-97.51344;12.69914;-119.864136;2.597139
2019-11-01T11:50:56;1;-91.11858;15.605666;-119.62184;2.554318
2019-11-01T11:55:56;1;-92.87808;15.145685;-119.738716;2.5152843
2019-11-01T12:00:56;1;-96.154655;13.51578;-119.79263;2.4945784
2019-11-01T12:05:56;1;-91.33244;16.112978;-120.35699;2.5019052
2019-11-01T12:10:56;1;-95.90297;13.754479;-120.150856;2.5068452
2019-11-01T12:15:56;1;-88.62775;17.318645;-119.77545;2.5025403
2019-11-01T12:20:56;1;-95.50326;13.860096;-119.63664;2.5626507
2019-11-01T12:25:56;1;-95.814;13.452724;-119.63484;2.5547814
2019-11-01T12:30:56;1;-93.022995;14.227223;-119.203445;2.5515122
2019-11-01T12:35:56;1;-94.09764;13.885832;-118.678406;2.5916903
2019-11-01T12:40:56;1;-86.80174;17.781227;-119.30035;2.5862823
2019-11-01T12:45:56;1;-91.45635;15.312133;-119.2724;2.6025457
2019-11-01T12:50:56;1;-94.31859;14.236895;-119.56198;2.5883243
2019-11-01T12:55:56;1;-94.16554;14.312545;-119.95195;2.6059325
2019-11-01T13:00:56;1;-98.88251;12.156249;-120.069374;2.4978676
2019-11-01T13:05:56;1;-90.29118;16.467026;-120.045845;2.5884244
2019-11-01T13:10:56;1;-91.53015;15.575373;-119.790146;2.491885
2019-11-01T13:15:56;1;-94.407265;13.69211;-118.36645;2.5907083
2019-11-01T13:20:56;1;-94.424446;13.5196495;-118.29658;2.5887582
2019-11-01T13:25:56;1;-91.28049;14.757981;-117.67362;2.4343739
2019-11-01T13:30:56;1;-91.02683;15.603759;-119.20171;2.5326889
2019-11-01T13:35:56;1;-92.722595;14.606528;-118.99603;2.5399477
2019-11-01T13:40:56;1;-93.96138;13.887222;-118.5351;2.5263133
2019-11-01T13:45:56;1;-91.4896;14.70557;-118.21583;2.5984023
2019-11-01T13:50:56;1;-96.2394;12.715726;-118.70366;2.4457893
2019-11-01T13:55:56;1;-98.767494;11.560229;-118.802795;2.436394
2019-11-01T14:00:56;1;-90.07245;15.516808;-118.41701;2.505873
2019-11-01T14:05:56;1;-93.93413;13.91678;-118.65018;2.491806
2019-11-01T14:10:56;1;-88.433334;16.835516;-118.64418;2.720343
2019-11-01T14:15:56;1;-89.92073;15.448474;-117.91644;2.5772548
2019-11-01T14:20:56;1;-96.43294;12.473198;-118.29396;2.6316795
2019-11-01T14:25:56;1;-93.30221;13.832699;-118.0365;2.512905
2019-11-01T14:30:56;1;-91.75464;14.341528;-118.38983;2.628944
2019-11-01T14:35:56;1;-97.09237;12.222328;-118.0496;2.5892224
2019-11-01T14:40:56;1;-91.721924;14.906373;-118.61452;2.6127324
2019-11-01T14:45:56;1;-92.39447;14.457787;-118.306274;2.4649322
2019-11-01T14:50:56;1;-89.499275;15.994914;-118.42643;2.473721
2019-11-01T14:55:56;1;-90.38048;15.415782;-118.398834;2.6378388
2019-11-01T15:00:56;1;-90.28627;15.565271;-118.31066;2.6659873
2019-11-01T15:05:56;1;-93.476585;14.0963;-118.51632;2.3902416
2019-11-01T15:10:56;1;-91.26951;14.834925;-118.20199;2.499507
2019-11-01T15:15:56;1;-91.136765;15.28174;-118.31502;2.4989111
2019-11-01T15:20:56;1;-86.82031;17.122986;-118.25481;2.5656748
2019-11-01T15:25:56;1;-90.0467;15.738456;-118.400444;2.6225376
2019-11-01T15:30:56;1;-90.80329;15.247502;-118.26976;2.561354
2019-11-01T15:35:56;1;-86.8505;17.115225;-118.38114;2.6295028
2019-11-01T15:40:56;1;-91.02047;15.040496;-118.24397;2.5654976
2019-11-01T15:45:56;1;-87.36377;16.916647;-118.65544;2.5005808
2019-11-01T15:50:56;1;-89.475876;15.888111;-118.515274;2.6415997
2019-11-01T15:55:56;1;-95.47715;13.776667;-119.45369;2.5362458
2019-11-01T16:00:56;1;-88.31695;16.794912;-118.937485;2.5855415
2019-11-01T16:05:56;1;-92.777374;14.749544;-118.61983;2.659438
2019-11-01T16:10:56;1;-92.980064;14.706207;-118.494286;2.4895837
2019-11-01T16:15:56;1;-116.894646;3.1415575;-118.030495;2.6276107
2019-11-01T16:20:56;1;-118.51799;2.6980178;-118.6937;2.6248553
2019-11-01T16:25:56;1;-118.53523;2.832866;-119.07694;2.6498868
2019-11-01T16:30:56;1;-119.02107;2.5540268;-119.4115;2.6038463
2019-11-01T16:35:56;1;-118.41892;2.5299628;-118.901405;2.4491398
2019-11-01T16:40:56;1;-119.327446;2.518166;-119.3469;2.468391
2019-11-01T16:45:56;1;-119.612305;2.5895185;-119.35242;2.5144718
2019-11-01T16:50:56;1;-118.60037;2.7205415;-119.31751;2.69521
2019-11-01T16:55:56;1;-119.74884;2.4657872;-119.69259;2.502197
2019-11-01T17:00:56;1;-119.5855;2.6465375;-120.150024;2.6708071
2019-11-01T17:05:56;1;-119.67827;2.7031946;-119.618645;2.691522
2019-11-01T17:10:56;1;-118.46175;2.582913;-118.31163;2.5814822
2019-11-01T17:15:56;1;-118.65;2.5797358;-118.95379;2.618229
2019-11-01T17:20:56;1;-119.24674;2.5586667;-119.18359;2.5910487
2019-11-01T17:25:56;1;-119.19397;2.5506403;-119.15554;2.4879923
2019-11-01T17:30:56;1;-119.43678;2.5726342;-119.66509;2.4680998
2019-11-01T17:35:56;1;-119.0813;2.5989232;-119.41716;2.540805
2019-11-01T17:40:56;1;-119.19559;2.610027;-119.32316;2.6637735
2019-11-01T17:45:56;1;-119.13721;2.4403827;-119.077484;2.4088595
2019-11-01T17:50:56;1;-119.09155;2.5808713;-119.10142;2.5471792
2019-11-01T17:55:56;1;-119.20923;2.5614893;-119.21659;2.5918775
2019-11-01T18:00:56;1;-119.00911;2.524251;-118.970764;2.5289223
2019-11-01T18:05:56;1;-118.97397;2.4917877;-119.22527;2.472412
2019-11-01T18:10:56;1;-119.03802;2.5715249;-119.28004;2.5953276
2019-11-01T18:15:56;1;-119.25671;2.5441506;-119.27429;2.6124992
2019-11-01T18:20:56;1;-118.61217;2.482648;-118.75604;2.454987
2019-11-01T18:25:56;1;-117.340645;3.1140184;-119.071365;2.6936362
2019-11-01T18:30:56;1;-118.77686;2.5717587;-118.79489;2.5509493
2019-11-01T18:35:56;1;-118.8492;2.5500991;-119.092735;2.518045
2019-11-01T18:40:56;1;-118.75994;2.6043684;-118.846504;2.630404
2019-11-01T18:45:56;1;-115.017334;4.064121;-118.3096;2.698301
2019-11-01T18:50:56;1;-113.571976;4.4543166;-118.143745;2.4829938
2019-11-01T18:55:56;1;-117.26298;2.861044;-118.319115;2.5729015
2019-11-01T19:00:56;1;-118.13381;2.435883;-118.29473;2.4806764
2019-11-01T19:05:56;1;-117.70914;2.6831493;-117.95826;2.7029724
2019-11-01T19:10:56;1;-117.31791;2.5408037;-117.43138;2.5010114
2019-11-01T19:15:56;1;-117.97278;2.5394304;-117.98079;2.596869
2019-11-01T19:20:56;1;-117.73954;2.5731838;-117.858864;2.5896819
2019-11-01T19:25:56;1;-117.84548;2.5289176;-118.10226;2.489032
2019-11-01T19:30:56;1;-118.114265;2.522169;-118.12623;2.5107713
2019-11-01T19:35:56;1;-117.99742;2.4968383;-117.9443;2.461455
2019-11-01T19:40:56;1;-117.54637;2.7294912;-118.41952;2.46435
2019-11-01T19:45:56;1;-118.291275;2.4312909;-118.312584;2.477635
2019-11-01T19:50:56;1;-117.8397;2.601868;-117.89969;2.5876637
2019-11-01T19:55:56;1;-117.94595;2.554393;-118.106224;2.5414088
2019-11-01T20:00:56;1;-118.377625;2.5413842;-118.29541;2.5884418
2019-11-01T20:05:56;1;-118.85676;2.6146882;-119.02926;2.6570032
2019-11-01T20:10:56;1;-119.14397;2.5548828;-119.390274;2.5158064
2019-11-01T20:15:56;1;-118.694626;2.8658633;-119.40428;2.6498475
2019-11-01T20:20:56;1;-119.12761;2.5150404;-119.19849;2.4483783
2019-11-01T20:25:56;1;-118.803696;2.6670816;-119.115234;2.6404452
2019-11-01T20:30:56;1;-119.17891;2.5573094;-119.358025;2.6023264
2019-11-01T20:35:56;1;-119.04073;2.516302;-119.14267;2.6035578
2019-11-01T20:40:56;1;-119.06623;2.5249453;-119.003975;2.6399693
2019-11-01T20:45:56;1;-119.29114;2.4933321;-119.389885;2.5145714
2019-11-01T20:50:56;1;-119.35696;2.5380268;-119.3634;2.514988
2019-11-01T20:55:56;1;-119.267;2.4977722;-119.56754;2.5089421
2019-11-01T21:00:56;1;-119.381226;2.5859911;-119.449;2.6306465
2019-11-01T21:05:56;1;-119.61526;2.5748887;-119.61996;2.551733
2019-11-01T21:10:56;1;-119.12299;2.6511123;-119.22782;2.5780222
2019-11-01T21:15:56;1;-119.46172;2.549792;-119.50492;2.5071096
2019-11-01T21:20:56;1;-119.4799;2.5465248;-119.39061;2.5142548
2019-11-01T21:25:56;1;-119.0506;2.5504231;-119.01993;2.4962564
2019-11-01T21:30:56;1;-118.67174;2.510587;-118.691376;2.5999095
2019-11-01T21:35:56;1;-118.164375;2.5989645;-118.57327;2.5420437
2019-11-01T21:40:56;1;-117.942764;2.5681417;-117.98573;2.6016881
2019-11-01T21:45:56;1;-118.249;2.507758;-118.320045;2.6029904
2019-11-01T21:50:56;1;-118.269806;2.544799;-118.40109;2.5913172
2019-11-01T21:55:56;1;-118.11774;2.5353022;-118.10194;2.5250165
2019-11-01T22:00:56;1;-118.60685;2.5509243;-118.40563;2.639734
2019-11-01T22:05:56;1;-117.26656;2.4564211;-117.30905;2.4223495
2019-11-01T22:10:56;1;-117.41359;2.4907434;-117.46002;2.499432
2019-11-01T22:15:56;1;-117.2884;2.5719388;-117.39752;2.485365
2019-11-01T22:20:56;1;-116.94852;2.426403;-117.001076;2.4378965
2019-11-01T22:25:56;1;-117.696594;2.5293264;-117.827385;2.588403
2019-11-01T22:30:56;1;-117.81356;2.5623612;-118.06715;2.529271
2019-11-01T22:35:56;1;-117.97507;2.5294704;-118.08735;2.5494823
2019-11-01T22:40:56;1;-118.92764;2.5409503;-119.17188;2.5035846
2019-11-01T22:45:56;1;-119.01274;2.5935316;-119.26197;2.6523874
2019-11-01T22:50:56;1;-118.32316;2.5293925;-118.243416;2.584946
2019-11-01T22:55:56;1;-118.765465;2.6236532;-118.678734;2.6497293
2019-11-01T23:00:56;1;-118.76266;2.7274494;-118.72634;2.671401
2019-11-01T23:05:56;1;-118.71014;2.6796978;-118.75331;2.732815
2019-11-01T23:10:56;1;-118.46223;2.5616624;-118.51108;2.5284688
2019-11-01T23:15:56;1;-118.2844;2.5409763;-118.296684;2.4532332
2019-11-01T23:20:56;1;-117.791916;2.484275;-117.7289;2.463069
2019-11-01T23:25:56;1;-117.6601;2.4761796;-117.78245;2.5658338
2019-11-01T23:30:56;1;-118.34701;2.515827;-118.37897;2.521573
2019-11-01T23:35:56;1;-118.32713;2.4561794;-118.32824;2.4193604
2019-11-01T23:40:56;1;-118.283195;2.5509293;-118.421;2.6208837
2019-11-01T23:45:56;1;-117.92554;2.5172126;-117.881355;2.5716736
2019-11-01T23:50:56;1;-118.48747;2.538209;-118.28962;2.6082165
2019-11-01T23:55:56;1;-118.37612;2.4991226;-118.53206;2.5497377
2019-11-02T00:00:56;1;-118.038414;2.502707;-118.24185;2.5144634
2019-11-02T00:05:56;1;-117.464874;2.4648573;-117.46907;2.4917889
2019-11-02T00:10:56;1;-117.47326;2.643535;-117.93904;2.765625
2019-11-02T00:15:56;1;-118.351685;2.562809;-118.38608;2.5890114
2019-11-02T00:20:56;1;-117.74618;2.5529528;-118.01897;2.4834733
2019-11-02T00:25:56;1;-118.353455;2.6124742;-118.32418;2.6249683
2019-11-02T00:30:56;1;-118.22159;2.5883424;-118.55175;2.5089157
2019-11-02T00:35:56;1;-118.21951;2.518434;-118.231865;2.5723822
2019-11-02T00:40:56;1;-117.6211;2.5201862;-117.250565;2.5758898
2019-11-02T00:45:56;1;-118.363266;2.5241637;-118.26497;2.5248678
2019-11-02T00:50:56;1;-118.079155;2.4630547;-118.259476;2.4964142
2019-11-02T00:55:56;1;-118.141014;2.5493639;-118.16479;2.5526161
2019-11-02T01:00:56;1;-117.43894;2.405316;-117.5694;2.4323707
2019-11-02T01:05:56;1;-117.541954;2.5652435;-117.688515;2.561356
2019-11-02T01:10:56;1;-117.8498;2.5279038;-117.9335;2.5965228
2019-11-02T01:15:56;1;-117.42184;2.4746075;-117.6456;2.4729455
2019-11-02T01:20:56;1;-117.64803;2.6132298;-118.046776;2.616028
2019-11-02T01:25:56;1;-117.610596;2.5982542;-117.44542;2.552781
2019-11-02T01:30:56;1;-117.21074;2.4706163;-117.17754;2.5010781
2019-11-02T01:35:56;1;-117.10233;2.4467397;-117.03912;2.4407809
2019-11-02T01:40:56;1;-117.073524;2.6036854;-117.54011;2.5338905
2019-11-02T01:45:56;1;-117.81176;2.397458;-117.751015;2.3884716
2019-11-02T01:50:56;1;-117.608185;2.553161;-117.62426;2.5174646
2019-11-02T01:55:56;1;-118.10881;2.4959905;-118.19835;2.506639
2019-11-02T02:00:56;1;-116.93747;2.5216556;-116.859955;2.4938874
2019-11-02T02:05:56;1;-116.979126;2.4857645;-116.85187;2.4643342
2019-11-02T02:10:56;1;-117.018845;2.5544405;-116.93969;2.5654938
2019-11-02T02:15:56;1;-116.96945;2.5951777;-117.09145;2.6114023
2019-11-02T02:20:56;1;-117.12526;2.483684;-116.95006;2.494093
2019-11-02T02:25:56;1;-117.513145;2.5664027;-118.121254;2.437652
2019-11-02T02:30:56;1;-117.78361;2.5832312;-117.62941;2.6725192
2019-11-02T02:35:56;1;-117.04997;2.4617648;-117.10269;2.4415355
2019-11-02T02:40:56;1;-117.2995;2.4977221;-117.42764;2.5296104
2019-11-02T02:45:56;1;-117.068016;2.4955437;-116.85986;2.4981706
2019-11-02T02:50:56;1;-117.33199;2.5366461;-117.3752;2.5499349
2019-11-02T02:55:56;1;-117.972725;2.5123665;-118.02397;2.4620724
2019-11-02T03:00:56;1;-118.15944;2.4916902;-118.27938;2.535357
2019-11-02T03:05:56;1;-118.542336;2.5418265;-118.58484;2.4765399
2019-11-02T03:10:56;1;-118.480995;2.537883;-118.471245;2.5312898
2019-11-02T03:15:56;1;-118.25457;2.5868168;-118.24251;2.696015
2019-11-02T03:20:56;1;-118.128716;2.515939;-118.08076;2.5092812
2019-11-02T03:25:56;1;-118.43566;2.7022686;-118.72356;2.757716
2019-11-02T03:30:56;1;-118.20539;2.5518322;-118.20471;2.4707065
2019-11-02T03:35:56;1;-118.98247;2.5451996;-119.04306;2.5547395
2019-11-02T03:40:56;1;-118.587906;2.5516527;-118.52844;2.6684558
2019-11-02T03:45:56;1;-118.092834;2.6072278;-118.21131;2.6871102
2019-11-02T03:50:56;1;-118.45457;2.519616;-118.47958;2.5311697
2019-11-02T03:55:56;1;-118.304756;2.5746562;-118.275406;2.6092298
2019-11-02T04:00:56;1;-118.54364;2.5041368;-118.24438;2.5458882
2019-11-02T04:05:56;1;-118.67158;2.5156155;-118.60756;2.470284
2019-11-02T04:10:56;1;-119.21708;2.5697427;-119.00093;2.5502949
2019-11-02T04:15:56;1;-118.87839;2.4575648;-118.9853;2.3960838
2019-11-02T04:20:56;1;-118.71897;2.594542;-118.97923;2.601364
2019-11-02T04:25:56;1;-118.402534;2.591203;-118.5833;2.5744245
2019-11-02T04:30:56;1;-118.44991;2.382803;-118.39945;2.4217153
2019-11-02T04:35:56;1;-118.463585;2.576884;-118.30519;2.6222677
2019-11-02T04:40:56;1;-118.26864;2.5705044;-118.32384;2.5724492
2019-11-02T04:45:56;1;-118.11077;2.6174011;-118.00918;2.5656521
2019-11-02T04:50:56;1;-117.68158;2.646927;-117.75707;2.6472178
2019-11-02T04:55:56;1;-117.64827;2.5176985;-117.61705;2.510454
2019-11-02T05:00:56;1;-117.959076;2.4756904;-117.92756;2.4275305
2019-11-02T05:05:56;1;-117.31766;2.5720456;-117.44016;2.5667624
2019-11-02T05:10:56;1;-117.541916;2.6249642;-117.37737;2.618828
2019-11-02T05:15:56;1;-117.059525;2.562904;-117.20686;2.5304902
2019-11-02T05:20:56;1;-117.53197;2.4973307;-117.6343;2.5449185
2019-11-02T05:25:56;1;-115.87468;3.1540127;-117.38497;2.57795
2019-11-02T05:30:56;1;-117.59652;2.5170267;-117.35607;2.5039735
2019-11-02T05:35:56;1;-117.7281;2.4828358;-118.03406;2.4289021
2019-11-02T05:40:56;1;-117.39399;2.5568004;-117.343094;2.5597467
2019-11-02T05:45:56;1;-117.44727;2.5261843;-117.46763;2.4926069
2019-11-02T05:50:56;1;-117.914604;2.5837412;-118.295715;2.6165116
2019-11-02T05:55:56;1;-118.080574;2.466571;-118.13343;2.493226
2019-11-02T06:00:56;1;-118.32372;2.9185653;-118.24364;2.9828503
2019-11-02T06:05:56;1;-118.30052;3.0502293;-119.438446;2.6404707
2019-11-02T06:10:56;1;-116.03205;4.2664824;-119.99259;2.69615
2019-11-02T06:15:56;1;-114.88736;4.709794;-119.71523;2.6402197
2019-11-02T06:20:56;1;-109.316696;6.872626;-119.3088;2.553952